2017-008BX

Last updated on Thu Mar 02 2017 00:15:03 GMT+0000 (Coordinated Universal Time)

1 42017U 17008BX 17060.40164661 .00002590 00000-0 11502-3 0 9990 2 42017 97.5096 122.0237 0005371 227.9945 132.0838 15.22456334 2094
UTC large
Height (km)
Speed (km/s)
/
Latitude / Longitude
Inclination (degrees)
Orbital Period (minutes)
Azimuth
Elevation
Range (km)
Doppler Factor

Next 0 passes for location: London (51.5072 / 0.1276)

Sorry there are no passes over London.
2017-008BX